Location: Daerah Kuala Lumpur
(3.1167°N, 101.6833°E)
Time: 07:46:10
(UTC+00:00)

CZ-4C R/B - Pass Details

Date: 19 November 2024
Orbit: 515 x 1473 km, 63.4° (Epoch: 09 December)

Event Time Altitude Azimuth Distance (km) Brightness Sun altitude
Rises 12:40:42 0° 323° (NW) 4,420 6.1 -25.0°
Reaches altitude 10° 12:43:42 10° 317° (NW) 3,517 5.6 -25.7°
Maximum altitude 12:52:03 45° 248° (WSW) 1,921 4.4 -27.7°
Drops below altitude 10° 13:00:26 10° 179° (S) 3,511 5.6 -29.6°
Sets 13:03:27 0° 172° (S) 4,411 6.1 -30.3°
